Regional Weather Roundup
Issued by NWS State College, PA

Home | Current Version | Previous Version | Graphics & Text | Print | Product List | Glossary Off
Versions: 1 2 3 4 5 6 7 8 9 10 11 12 13 14 15 16 17 18 19 20 21 22 23 24 25 26 27 28 29 30 31 32 33 34 35 36 37 38 39 40 41 42 43 44 45 46 47 48 49 50

000
ASUS41 KCTP 191203
RWRCTP
REGIONAL WEATHER ROUNDUP
NATIONAL WEATHER SERVICE STATE COLLEGE PA
800 AM EDT TUE SEP 19 2017

Note: "fair" indicates few or no clouds below 12,000 feet with no
significant weather and/or obstructions to visibility.

* = STATION THAT DOES NOT REPORT PRECIPITATION /E.G. RAIN...SNOW...ETC/
    THUNDER OR FOG.

PAZ002>004-007>009-013>016-020>023-029>032-191300-
WESTERN PENNSYLVANIA

CITY           SKY/WX    TMP DP  RH WIND       PRES   REMARKS
ERIE           PTCLDY    67  62  84 S13       30.02R
MEADVILLE      PTCLDY    65  63  93 VRB3      30.06R
FRANKLIN*      MOCLDY    62  61  96 E9        30.08S FOG
NEW CASTLE     FAIR      60  60 100 CALM      30.06R FOG
BEAVER COUNTY  CLEAR     63  63 100 CALM      30.05R FOG
BUTLER*        PTCLDY    63  61  93 E6        30.06S FOG
PITTSBURGH INT CLOUDY    64  63  96 CALM        N/A
PITTSBURGH     CLOUDY    64  60  87 CALM      30.05R FOG
INDIANA*       SUNNY     63  61  94 E3        30.10S FOG
LATROBE        SUNNY     63  63 100 CALM      30.06R
WASHINGTON CO* MOCLDY    57  55  94 CALM      30.04F VSB 1/4
$$

PAZ004>006-010>012-017>019-024>028-033>037-041-042-045-046-049>053-191300-
CENTRAL PENNSYLVANIA

CITY           SKY/WX    TMP DP  RH WIND       PRES   REMARKS
BRADFORD       CLOUDY    62  60  93 SE5       30.11R
DUBOIS         SUNNY     60  58  92 E5        30.09R FOG
CLEARFIELD     CLOUDY    62  62 100 CALM      30.10R FOG
JOHNSTOWN      CLOUDY    63  60  90 CALM      30.10R
ALTOONA        CLOUDY    63  62  97 CALM      30.10R FOG
STATE COLLEGE  NOT AVBL
WILLIAMSPORT   CLOUDY    66  63  90 CALM      30.06F
SELINSGROVE    CLOUDY    63  63 100 CALM      30.07S FOG
FT INDIANTOWN  CLOUDY    67  67  99 N6        30.04S
CAPITAL CITY   CLOUDY    68  63  84 CALM      30.04S
HARRISBURG     CLOUDY    67  65  93 NW6       30.03S
YORK           CLOUDY    66  66 100 CALM      30.03S FOG
$$

PAZ038>040-043-044-047-048-054-055-060>062-067>071-191300-
EASTERN PENNSYLVANIA

CITY           SKY/WX    TMP DP  RH WIND       PRES   REMARKS
SCRANTON       CLOUDY    66  63  90 NE6       30.09S
MOUNT POCONO   CLOUDY    62  62 100 NE9       30.10F
ALLENTOWN      CLOUDY    69  64  84 N7        30.04S
QUAKERTOWN*    CLOUDY    68  66  94 NE7       30.05R
READING        CLOUDY    68  67  96 CALM      30.03R
LANCASTER      CLOUDY    68  67  96 NE9       30.03S
COATESVILLE    PTSUNNY   68  66  94 NE7       30.04R FOG
POTTSTOWN      CLOUDY    68  67  96 N6        30.04S
BLUE BELL      CLOUDY    68  66  94 NE3       30.03R
DOYLESTOWN     CLOUDY    69  66  90 N10       30.02R
WILLOW GROVE   NOT AVBL
NORTH PHILA    CLOUDY    72  67  84 N17       30.00S
PHILADELPHIA   CLOUDY    72  66  81 N21G26    29.98S
$$



USA.gov is the U.S. government's official web portal to all federal, state and local government web resources and services.